| time (UTC) | temp F | wind direction | speed MPH | gust MPH | rain 1hr in | rain 24hr in | rain mn in | humidity % | barometer mb |
| 20260504140851 | 63 | 203 | 11.0 | 11.0 | 0.00 | 0.00 | 0.00 | 56 | |
| 20260504140839 | 63 | 203 | 9.0 | 9.0 | 0.00 | 0.00 | 0.00 | 55 | |
| 20260504081839 | 48 | 158 | 4.0 | 4.0 | 0.00 | 0.00 | 0.00 | 78 | |
| 20260504080852 | 48 | 158 | 7.0 | 7.0 | 0.00 | 0.00 | 0.00 | 77 | |
| 20260504080839 | 47 | 158 | 5.0 | 5.0 | 0.00 | 0.00 | 0.00 | 77 | |
| 20260504045839 | 47 | 113 | 2.0 | 2.0 | 0.00 | 0.00 | 0.00 | 68 | |
| 20260504044839 | 47 | 180 | 3.0 | 3.0 | 0.00 | 0.00 | 0.00 | 68 | |
| 20260504043850 | 47 | 180 | 5.0 | 5.0 | 0.00 | 0.00 | 0.00 | 67 | |
| 20260504043839 | 47 | 180 | 4.0 | 4.0 | 0.00 | 0.00 | 0.00 | 67 | |
| 20260504042839 | 47 | 203 | 4.0 | 4.0 | 0.00 | 0.00 | 0.00 | 67 | |
| 20260504041851 | 47 | 158 | 3.0 | 3.0 | 0.00 | 0.00 | 0.00 | 65 | |
| 20260504041840 | 47 | 158 | 4.0 | 4.0 | 0.00 | 0.00 | 0.00 | 66 | |
| 20260504040840 | 47 | 180 | 3.0 | 3.0 | 0.00 | 0.00 | 0.00 | 65 | |
| 20260504035851 | 48 | 180 | 4.0 | 4.0 | 0.00 | 0.00 | 0.00 | 64 | |
| 20260504035840 | 48 | 203 | 3.0 | 3.0 | 0.00 | 0.00 | 0.00 | 64 | |
| 20260504034840 | 47 | 203 | 3.0 | 3.0 | 0.00 | 0.00 | 0.00 | 64 | |
| 20260504033840 | 47 | 203 | 3.0 | 3.0 | 0.00 | 0.00 | 0.00 | 64 | |
| 20260504032852 | 48 | 180 | 3.0 | 3.0 | 0.00 | 0.00 | 0.00 | 63 | |
| 20260504032840 | 48 | 135 | 2.0 | 2.0 | 0.00 | 0.00 | 0.00 | 63 | |
| 20260504031840 | 48 | 158 | 3.0 | 3.0 | 0.00 | 0.00 | 0.00 | 62 | |
| 20260504030840 | 48 | 158 | 2.0 | 2.0 | 0.00 | 0.00 | 0.00 | 62 | |
| 20260504025840 | 48 | 158 | 3.0 | 3.0 | 0.00 | 0.00 | 0.00 | 61 | |
| 20260504024941 | 48 | 180 | 3.0 | 3.0 | 0.00 | 0.00 | 0.00 | 59 | |
| 20260504024840 | 48 | 180 | 3.0 | 3.0 | 0.00 | 0.00 | 0.00 | 59 | |
| 20260504023851 | 48 | 203 | 3.0 | 3.0 | 0.00 | 0.00 | 0.00 | 59 | |
| 20260504023840 | 48 | 203 | 2.0 | 2.0 | 0.00 | 0.00 | 0.00 | 59 | |
| 20260504022840 | 48 | 135 | 0.0 | 0.0 | 0.00 | 0.00 | 0.00 | 59 | |
| 20260504021851 | 48 | 180 | 4.0 | 4.0 | 0.00 | 0.00 | 0.00 | 60 | |
| 20260504021839 | 48 | 203 | 3.0 | 3.0 | 0.00 | 0.00 | 0.00 | 60 | |
| 20260504020839 | 48 | 203 | 5.0 | 5.0 | 0.00 | 0.00 | 0.00 | 60 | |
| 20260504015839 | 49 | 158 | 2.0 | 2.0 | 0.00 | 0.00 | 0.00 | 58 | |
| 20260504014839 | 49 | 180 | 1.0 | 1.0 | 0.00 | 0.00 | 0.00 | 57 | |
| 20260504013839 | 49 | 135 | 3.0 | 3.0 | 0.00 | 0.00 | 0.00 | 55 | |
| 20260504012839 | 49 | 180 | 2.0 | 2.0 | 0.00 | 0.00 | 0.00 | 55 | |
| 20260504011839 | 50 | 158 | 2.0 | 2.0 | 0.00 | 0.00 | 0.00 | 54 | |
| 20260504010851 | 50 | 135 | 3.0 | 3.0 | 0.00 | 0.00 | 0.00 | 54 | |
| 20260504010839 | 51 | 135 | 2.0 | 2.0 | 0.00 | 0.00 | 0.00 | 53 | |
| 20260504005839 | 51 | 180 | 3.0 | 3.0 | 0.00 | 0.00 | 0.00 | 53 | |
| 20260504004851 | 51 | 158 | 2.0 | 2.0 | 0.00 | 0.00 | 0.00 | 52 | |
| 20260504004839 | 51 | 180 | 1.0 | 1.0 | 0.00 | 0.00 | 0.00 | 52 | |
| 20260504003839 | 52 | 180 | 2.0 | 2.0 | 0.00 | 0.00 | 0.00 | 50 | |
| 20260504002851 | 53 | 158 | 4.0 | 4.0 | 0.00 | 0.00 | 0.00 | 48 | |
| 20260504002839 | 53 | 158 | 2.0 | 2.0 | 0.00 | 0.00 | 0.00 | 48 | |
| 20260504001839 | 54 | 180 | 3.0 | 3.0 | 0.00 | 0.00 | 0.00 | 45 | |
| 20260504000839 | 55 | 248 | 4.0 | 4.0 | 0.00 | 0.00 | 0.00 | 43 | |
| 20260503235839 | 56 | 203 | 4.0 | 4.0 | 0.00 | 0.00 | 0.00 | 41 | |
| 20260503234839 | 57 | 225 | 5.0 | 5.0 | 0.00 | 0.00 | 0.00 | 38 | |
| 20260503233850 | 59 | 203 | 7.0 | 7.0 | 0.00 | 0.00 | 0.00 | 38 | |
| 20260503233839 | 59 | 225 | 6.0 | 6.0 | 0.00 | 0.00 | 0.00 | 38 | |
| 20260503232839 | 59 | 248 | 4.0 | 4.0 | 0.00 | 0.00 | 0.00 | 36 | |
| 20260503231852 | 60 | 248 | 4.0 | 4.0 | 0.00 | 0.00 | 0.00 | 36 | |
| 20260503231839 | 60 | 248 | 5.0 | 5.0 | 0.00 | 0.00 | 0.00 | 36 | |
| 20260503230839 | 60 | 248 | 7.0 | 7.0 | 0.00 | 0.00 | 0.00 | 36 | |
| 20260503225930 | 60 | 225 | 8.0 | 8.0 | 0.00 | 0.00 | 0.00 | 35 | |
| 20260503225839 | 60 | 225 | 8.0 | 8.0 | 0.00 | 0.00 | 0.00 | 35 | |
| 20260503224852 | 60 | 225 | 9.0 | 9.0 | 0.00 | 0.00 | 0.00 | 34 | |
| 20260503224839 | 60 | 248 | 8.0 | 8.0 | 0.00 | 0.00 | 0.00 | 34 | |
| 20260503223839 | 61 | 270 | 9.0 | 9.0 | 0.00 | 0.00 | 0.00 | 33 | |
| 20260503222850 | 62 | 270 | 7.0 | 7.0 | 0.00 | 0.00 | 0.00 | 33 | |
| 20260503222839 | 62 | 270 | 6.0 | 6.0 | 0.00 | 0.00 | 0.00 | 33 | |
| 20260503221840 | 61 | 248 | 6.0 | 6.0 | 0.00 | 0.00 | 0.00 | 34 | |
| 20260503220852 | 61 | 248 | 10.0 | 10.0 | 0.00 | 0.00 | 0.00 | 34 | |
| 20260503220840 | 61 | 248 | 5.0 | 5.0 | 0.00 | 0.00 | 0.00 | 34 | |
| 20260503220135 | 61 | 270 | 8.0 | 8.0 | 0.00 | 0.00 | 0.00 | 34 | |
| 20260503215851 | 61 | 270 | 8.0 | 8.0 | 0.00 | 0.00 | 0.00 | 34 | |
| 20260503215840 | 61 | 270 | 6.0 | 6.0 | 0.00 | 0.00 | 0.00 | 34 | |
| 20260503215255 | 61 | 293 | 13.0 | 13.0 | 0.00 | 0.00 | 0.00 | 34 | |
| 20260503214840 | 61 | 293 | 13.0 | 13.0 | 0.00 | 0.00 | 0.00 | 34 | |
| 20260503214340 | 61 | 248 | 8.0 | 8.0 | 0.00 | 0.00 | 0.00 | 35 | |
| 20260503213851 | 61 | 248 | 8.0 | 8.0 | 0.00 | 0.00 | 0.00 | 35 | |
| 20260503213840 | 61 | 248 | 6.0 | 6.0 | 0.00 | 0.00 | 0.00 | 35 | |
| 20260503213254 | 61 | 315 | 10.0 | 10.0 | 0.00 | 0.00 | 0.00 | 34 | |
| 20260503212840 | 61 | 315 | 10.0 | 10.0 | 0.00 | 0.00 | 0.00 | 34 | |
| 20260503211840 | 61 | 248 | 8.0 | 8.0 | 0.00 | 0.00 | 0.00 | 35 | |
| 20260503210853 | 60 | 248 | 11.0 | 11.0 | 0.00 | 0.00 | 0.00 | 36 | |
| 20260503210840 | 60 | 248 | 10.0 | 10.0 | 0.00 | 0.00 | 0.00 | 36 | |
| 20260503205840 | 59 | 270 | 15.0 | 15.0 | 0.00 | 0.00 | 0.00 | 35 | |
| 20260503204840 | 60 | 270 | 18.0 | 18.0 | 0.00 | 0.00 | 0.00 | 35 | |
| 20260503203840 | 60 | 270 | 13.0 | 13.0 | 0.00 | 0.00 | 0.00 | 35 | |
| 20260503202852 | 59 | 270 | 11.0 | 11.0 | 0.00 | 0.00 | 0.00 | 35 | |
| 20260503202840 | 59 | 270 | 13.0 | 13.0 | 0.00 | 0.00 | 0.00 | 35 | |
| 20260503201840 | 60 | 293 | 9.0 | 9.0 | 0.00 | 0.00 | 0.00 | 35 | |
| 20260503200852 | 60 | 293 | 11.0 | 11.0 | 0.00 | 0.00 | 0.00 | 34 | |
| 20260503200840 | 60 | 270 | 11.0 | 11.0 | 0.00 | 0.00 | 0.00 | 34 | |
| 20260503195852 | 61 | 270 | 18.0 | 18.0 | 0.00 | 0.00 | 0.00 | 36 | |
| 20260503195839 | 61 | 270 | 15.0 | 15.0 | 0.00 | 0.00 | 0.00 | 36 | |
| 20260503194839 | 61 | 248 | 17.0 | 17.0 | 0.00 | 0.00 | 0.00 | 34 | |
| 20260503193839 | 60 | 270 | 8.0 | 8.0 | 0.00 | 0.00 | 0.00 | 35 | |
| 20260503192839 | 60 | 225 | 8.0 | 8.0 | 0.00 | 0.00 | 0.00 | 36 | |
| 20260503191839 | 60 | 248 | 9.0 | 9.0 | 0.00 | 0.00 | 0.00 | 34 | |
| 20260503190839 | 60 | 270 | 11.0 | 11.0 | 0.00 | 0.00 | 0.00 | 35 | |
| 20260503185839 | 60 | 270 | 12.0 | 12.0 | 0.00 | 0.00 | 0.00 | 35 | |
| 20260503184850 | 59 | 293 | 13.0 | 13.0 | 0.00 | 0.00 | 0.00 | 35 | |
| 20260503184839 | 59 | 270 | 17.0 | 17.0 | 0.00 | 0.00 | 0.00 | 35 | |
| 20260503183839 | 59 | 270 | 7.0 | 7.0 | 0.00 | 0.00 | 0.00 | 36 | |
| 20260503182852 | 57 | 248 | 11.0 | 11.0 | 0.00 | 0.00 | 0.00 | 37 | |
| 20260503182839 | 57 | 248 | 12.0 | 12.0 | 0.00 | 0.00 | 0.00 | 37 | |
| 20260503181839 | 57 | 270 | 13.0 | 13.0 | 0.00 | 0.00 | 0.00 | 37 | |
| 20260503180839 | 58 | 225 | 11.0 | 11.0 | 0.00 | 0.00 | 0.00 | 36 | |
| 20260503175839 | 58 | 248 | 15.0 | 15.0 | 0.00 | 0.00 | 0.00 | 37 | |
| 20260503174839 | 57 | 270 | 12.0 | 12.0 | 0.00 | 0.00 | 0.00 | 39 | |
| 20260503173839 | 58 | 270 | 8.0 | 8.0 | 0.00 | 0.00 | 0.00 | 38 | |
| 20260503172839 | 58 | 338 | 10.0 | 10.0 | 0.00 | 0.00 | 0.00 | 40 | |
| 20260503171851 | 57 | 338 | 13.0 | 13.0 | 0.00 | 0.00 | 0.00 | 40 | |
| 20260503171839 | 58 | 338 | 8.0 | 8.0 | 0.00 | 0.00 | 0.00 | 40 | |
| 20260503170839 | 57 | 248 | 6.0 | 6.0 | 0.00 | 0.00 | 0.00 | 40 | |
| 20260503150840 | 54 | 293 | 13.0 | 13.0 | 0.00 | 0.00 | 0.00 | 46 |